User: anonymous   Login
Location: La Comballaz
(46.3780°N, 7.0817°E)
Time: 20:56:42
(UTC+00:00)
Language:

Cosmos 1726 - Orbit

View from above orbital plane
View from above orbital plane
View from above satellite
View from above satellite

Ground track
Ground track

The orbit data is extracted from the following two-line orbital elements,

1 16495U 86006A   20184.84438095  .00000541  00000-0  20261-4 0  9996
2 16495  82.4724  34.8722 0011084 252.6213 107.3812 15.24996063885643
Epoch (UTC): 02 July 2020 20:15:54
Eccentricity: 0.0011084
inclination: 82.4724°
perigee height: 483 km
apogee height: 498 km
right ascension of ascending node: 34.8722°
argument of perigee: 252.6213°
revolutions per day: 15.24996063
mean anomaly at epoch: 107.3812°
orbit number at epoch: 88564

The dashed part of the orbit path shows where the satellite is in the earth's shadow,  

DLR